Temperature
5 6 6 6 6 6 5 5 5 5 5 5 4 3 4 4 3 3 3 3 3 3 3 3 3 3 3 3 3 3 4 4 4 4 4 4 4 4 4 4 4 4 4 5
5 6 6 6 5 5 5 5 5 5 5 4 4 4 4 4 4 3 3 3 3 3 3 3 3 3 3 3 3 3 3 3 3 3 3 3 3 3 3 3 3 3 4 4
5 5 6 6 5 5 5 5 5 5 5 4 3 3 4 4 4 4 4 3 3 3 3 3 3 3 3 3 2 2 2 2 2 2 2 2 2 2 2 2 3 3 3 3
4 5 6 7 6 5 6 5 5 5 4 4 4 5 5 5 5 4 4 4 3 3 3 3 2 2 2 2 2 2 2 2 1 1 1 1 1 1 1 1 1 1 1 1
4 4 5 6 6 5 6 5 5 4 4 4 4 4 4 5 5 5 4 4 3 3 2 2 2 2 2 2 1 1 1 1 0 0 0 0 -0 -0 -0 -0 -0 -0 -0 0
4 6 7 8 6 6 6 6 5 4 3 3 3 3 4 5 5 4 4 3 3 3 2 2 2 1 1 1 1 0 0 -0 -1 -1 -1 -1 -1 -1 -1 -1 -1 -1 -1 -1
4 4 5 5 5 6 6 7 6 5 5 4 3 5 6 5 5 4 4 3 3 2 2 1 1 1 1 0 -0 -0 -1 -1 -1 -2 -2 -2 -2 -2 -2 -2 -2 -2 -2 -2
3 4 5 5 4 5 5 6 6 6 6 6 6 6 5 5 4 4 3 3 2 2 1 1 1 0 0 -0 -1 -1 -1 -1 -2 -2 -2 -2 -3 -3 -3 -3 -3 -3 -3 -3
3 5 5 5 6 7 7 7 7 7 7 6 6 6 5 5 4 3 3 2 2 1 1 1 0 -0 -0 -1 -1 -1 -2 -2 -2 -2 -3 -3 -3 -3 -4 -4 -4 -4 -4 -4
2 3 4 6 7 7 7 7 7 7 7 6 6 5 5 4 4 3 3 2 2 1 1 0 -0 -0 -1 -1 -2 -2 -2 -2 -3 -3 -3 -4 -4 -4 -5 -5 -5 -6 -6 -6
1 2 4 6 8 8 7 7 7 7 6 6 6 5 5 4 3 3 2 2 1 1 0 -0 -1 -1 -2 -2 -2 -3 -3 -3 -3 -4 -4 -4 -5 -5 -5 -6 -6 -7 -7 -7
4 5 4 6 8 8 7 7 7 6 6 5 5 5 4 4 3 2 2 1 1 0 -0 -1 -1 -2 -2 -2 -3 -3 -4 -4 -4 -5 -5 -5 -6 -6 -6 -6 -6 -7 -7 -7
6 6 6 7 7 7 7 7 6 6 5 5 5 4 4 3 2 2 1 1 0 -0 -1 -1 -2 -2 -2 -3 -4 -4 -4 -5 -5 -6 -6 -7 -7 -7 -7 -7 -7 -7 -7 -8
6 5 5 6 6 7 6 6 5 5 5 4 4 4 3 2 2 1 1 0 -0 -1 -1 -2 -2 -2 -3 -4 -4 -4 -5 -5 -6 -6 -7 -7 -8 -8 -8 -9 -8 -8 -8 -8
5 5 5 5 6 6 5 5 5 5 4 4 3 3 2 2 1 1 0 -0 -1 -1 -2 -2 -2 -3 -4 -4 -5 -5 -6 -6 -7 -7 -8 -8 -8 -9 -9 -9 -9 -9 -9 -8
4 4 4 4 5 5 5 4 4 4 4 3 3 2 2 1 1 0 -0 -1 -1 -2 -2 -3 -3 -4 -4 -5 -5 -6 -6 -7 -7 -8 -8 -8 -9 -9 -9 -9 -9 -9 -9 -9
3 3 4 4 4 4 4 4 4 4 3 3 2 2 1 1 0 -0 -1 -1 -2 -2 -3 -3 -4 -4 -5 -6 -6 -7 -7 -7 -8 -8 -9 -9 -9 -10 -10 -10 -10 -10 -10 -9
4 4 4 4 4 4 4 4 3 3 3 2 2 1 1 0 -0 -1 -1 -2 -2 -3 -3 -4 -4 -5 -6 -6 -7 -7 -8 -8 -9 -9 -9 -9 -10 -10 -10 -10 -10 -10 -10 -10
4 4 4 4 4 3 3 3 3 3 2 1 1 1 0 -0 -1 -1 -2 -2 -3 -3 -4 -4 -5 -6 -6 -7 -7 -8 -8 -9 -9 -9 -9 -10 -10 -10 -10 -10 -10 -10 -10 -10
3 4 4 4 3 3 3 3 2 2 2 1 0 -0 -0 -1 -1 -2 -2 -3 -3 -4 -4 -5 -5 -6 -6 -7 -8 -8 -9 -9 -9 -9 -10 -10 -10 -10 -10 -10 -10 -10 -10 -10
3 3 3 3 3 3 2 2 2 1 1 1 0 -0 -1 -1 -2 -2 -3 -3 -4 -4 -5 -5 -6 -6 -7 -8 -8 -9 -9 -9 -9 -10 -10 -10 -10 -10 -10 -11 -11 -11 -11 -11
3 3 3 3 3 2 2 2 1 1 0 0 -0 -1 -1 -2 -3 -3 -3 -4 -4 -5 -5 -6 -6 -7 -8 -8 -8 -9 -9 -9 -9 -10 -10 -10 -11 -11 -11 -11 -11 -11 -11 -11
3 2 2 2 2 2 1 1 1 0 -0 -0 -1 -1 -2 -2 -3 -3 -4 -4 -5 -5 -6 -6 -7 -7 -8 -8 -8 -9 -9 -9 -10 -10 -10 -11 -11 -11 -11 -11 -11 -11 -11 -11
2 2 2 2 1 1 1 1 0 -0 -1 -1 -1 -2 -2 -3 -3 -4 -4 -5 -5 -6 -6 -7 -7 -8 -8 -8 -9 -9 -9 -9 -10 -10 -10 -11 -11 -11 -11 -11 -11 -11 -11 -11
2 2 1 1 1 1 1 0 -0 -1 -1 -1 -2 -2 -3 -3 -4 -4 -5 -5 -6 -6 -7 -7 -7 -8 -8 -8 -9 -9 -9 -10 -10 -10 -11 -11 -11 -11 -11 -11 -11 -11 -11 -11
1 1 1 1 1 1 0 -0 -1 -1 -1 -2 -2 -3 -3 -4 -4 -5 -5 -5 -6 -6 -7 -7 -8 -8 -8 -9 -9 -9 -10 -10 -10 -10 -10 -11 -11 -11 -11 -11 -11 -11 -11 -11
1 1 1 1 1 0 -0 -1 -1 -1 -2 -2 -3 -3 -4 -4 -5 -5 -5 -6 -6 -7 -7 -8 -8 -8 -8 -9 -9 -9 -10 -10 -10 -10 -10 -10 -11 -11 -11 -11 -11 -11 -11 -11
Wind_Speed
4 4 3 3 3 2 4 4 4 4 3 5 5 5 3 2 1 1 1 2 3 3 4 5 6 6 6 6 7 7 8 9 8 8 8 8 8 8 9 9 10 9 9 9
3 2 2 3 4 3 3 3 3 2 4 3 3 4 3 3 3 2 1 1 1 2 3 4 4 5 5 6 6 6 6 7 7 7 8 8 8 8 8 8 8 8 9 9
4 6 4 5 5 4 3 3 5 5 5 4 4 5 6 6 5 4 3 2 1 1 1 2 3 3 4 4 5 5 6 6 6 7 7 7 7 8 8 8 8 8 8 8
3 5 3 5 2 4 3 4 5 5 4 6 6 4 3 5 6 6 4 3 2 1 1 2 2 3 3 4 5 5 6 6 7 7 7 7 7 8 7 6 7 7 8 8
1 3 7 6 2 3 3 5 5 7 5 4 4 2 3 5 6 6 4 3 3 2 1 1 2 3 3 5 5 6 6 7 7 7 7 7 7 7 6 6 6 6 7 7
2 1 4 4 1 2 2 5 4 7 7 7 7 2 5 5 6 5 3 2 2 1 1 1 2 2 3 4 5 5 6 6 6 6 6 7 7 7 6 6 7 7 8 7
3 4 8 6 2 3 2 5 3 7 8 9 8 6 3 4 5 4 3 3 2 2 0 1 2 2 2 3 5 6 6 6 6 6 6 7 6 6 7 7 7 8 8 8
4 4 7 3 6 6 8 3 3 6 7 8 7 4 4 4 4 4 3 2 2 1 1 1 1 1 3 4 5 5 6 6 7 7 6 7 7 7 7 7 8 8 8 9
8 8 5 6 8 6 4 4 4 5 6 7 6 5 5 5 4 4 3 3 2 2 1 2 2 1 3 5 6 6 6 7 7 8 7 6 7 8 7 6 6 8 8 9
6 10 8 8 8 7 6 6 5 5 6 7 7 6 6 5 4 4 3 2 1 1 1 3 3 3 3 5 5 5 6 7 7 7 7 7 6 6 7 7 7 9 9 9
7 9 8 8 8 8 6 6 5 4 6 7 8 6 6 5 5 4 3 2 1 1 2 3 3 4 4 5 5 5 6 7 7 7 7 7 7 6 8 7 9 11 10 10
9 8 6 7 5 4 6 7 7 6 5 5 7 7 6 5 4 4 3 2 1 1 2 3 3 4 4 4 4 5 7 7 7 7 7 7 8 9 12 13 18 19 18 17
8 4 6 7 5 5 6 7 6 7 7 6 5 6 6 4 4 3 3 2 2 2 2 3 3 4 4 4 5 5 6 8 7 7 8 8 9 10 12 13 16 18 18 19
8 5 6 6 6 5 5 4 4 4 4 5 5 5 5 4 3 3 3 3 2 1 2 2 3 4 4 5 6 6 7 9 9 7 8 8 9 9 10 12 13 11 13 18
8 8 8 5 3 3 3 4 5 5 4 4 4 5 5 5 4 3 2 1 1 1 2 2 3 4 4 5 6 7 7 6 7 7 8 8 9 9 9 11 11 12 11 12
5 4 5 5 6 5 5 6 6 7 6 5 5 5 5 4 4 3 2 2 1 2 3 3 3 4 4 5 6 6 6 11 11 8 8 9 9 9 10 10 11 11 11 10
5 6 6 6 7 7 7 7 7 7 6 6 6 5 5 4 3 2 1 1 1 2 3 3 4 5 5 5 5 5 6 8 13 10 8 9 9 10 10 10 11 11 11 13
10 10 8 8 7 7 6 6 6 6 6 6 6 6 5 5 4 3 2 1 1 2 2 3 4 5 5 6 6 5 6 7 8 9 9 9 10 9 10 10 11 12 11 12
7 8 8 8 7 7 6 5 6 5 5 6 7 6 5 4 3 2 1 1 2 3 3 4 6 5 5 7 8 5 6 7 8 9 9 12 11 9 10 10 11 11 11 11
4 4 4 5 5 5 5 5 5 5 5 6 6 5 4 4 3 3 2 3 4 4 4 4 4 4 5 7 8 4 5 6 8 9 9 9 9 10 10 11 11 11 11 11
3 3 4 4 3 3 5 6 6 6 6 6 7 6 5 4 3 3 3 4 3 3 3 5 3 4 5 7 7 4 5 6 7 8 8 9 9 10 10 11 11 11 11 11
3 3 4 4 4 3 3 4 5 6 6 6 5 5 4 4 3 3 4 4 3 4 3 2 3 6 8 8 3 4 5 6 7 7 8 8 9 10 10 11 11 11 10 10
3 4 4 5 5 4 3 4 5 6 6 6 6 6 5 4 4 3 4 2 2 4 3 2 6 10 11 4 3 4 6 6 7 7 8 8 9 9 10 11 10 10 10 10
4 4 4 4 4 4 5 5 5 4 5 5 5 5 5 3 3 3 3 3 4 5 3 5 9 10 8 3 4 5 6 6 7 7 8 8 8 8 9 10 10 10 10 11
5 4 4 6 6 6 5 5 5 4 5 4 4 4 4 3 3 3 2 3 4 4 3 5 8 9 5 4 5 6 6 7 8 8 7 7 8 8 9 9 9 10 10 10
5 6 6 6 6 5 5 5 5 5 5 4 4 4 3 3 3 2 2 3 4 4 3 3 4 5 4 4 5 6 6 8 8 7 8 8 9 9 9 9 11 10 9 9
5 4 4 4 4 5 6 6 6 6 6 6 4 4 4 3 3 3 3 2 2 3 3 3 3 4 4 5 5 6 6 6 7 7 7 7 8 8 9 10 9 9 9 9
Wind_Direction
255 263 249 256 268 220 196 210 211 231 224 236 212 200 196 188 171 113 49 28 25 21 13 12 14 14 16 17 17 21 28 29 23 17 17 18 17 15 13 14 11 5 3 0
310 304 290 284 277 241 217 204 206 224 260 237 175 154 175 192 187 193 245 294 341 10 15 7 2 1 6 8 7 15 23 17 8 8 10 10 7 5 6 4 1 1 360 354
301 312 330 293 254 210 204 203 185 207 225 173 175 196 206 205 202 211 228 248 273 307 321 321 328 344 356 352 358 11 12 6 2 1 1 357 356 358 356 352 351 350 347 346
314 0 289 261 251 192 205 244 215 217 210 191 197 199 211 197 195 208 213 218 233 254 294 315 335 349 352 0 4 5 1 355 351 351 349 346 350 348 341 336 337 333 331 330
40 318 286 294 238 182 193 284 222 207 206 176 135 87 282 217 197 202 201 200 206 213 230 317 337 342 359 0 357 355 348 341 337 338 337 336 334 327 321 320 320 317 315 317
140 274 263 269 216 175 100 295 241 189 188 168 141 183 256 199 178 185 177 172 174 164 108 350 326 348 4 346 342 334 326 321 320 322 321 319 314 311 311 312 309 311 309 307
195 238 267 257 196 125 168 258 229 184 183 172 187 206 201 153 161 164 162 162 149 137 158 284 307 346 342 331 320 310 311 312 313 313 310 305 305 304 307 308 309 308 303 301
179 217 260 207 150 187 220 246 197 189 186 187 200 181 161 166 168 162 158 155 152 159 247 299 325 348 327 314 304 308 312 314 313 312 311 315 309 306 305 307 309 307 305 304
201 224 247 206 211 230 202 214 213 196 196 183 186 194 186 183 181 179 177 177 174 175 256 311 317 315 307 306 315 320 321 316 312 311 309 308 307 308 309 306 305 306 305 304
259 263 254 245 243 245 219 221 223 203 188 177 188 193 189 186 186 186 186 183 170 160 293 303 311 314 299 306 316 317 314 311 309 309 309 307 304 301 300 300 300 303 304 304
258 273 290 274 237 231 222 215 208 197 190 188 185 191 190 190 193 191 186 179 173 206 266 292 309 310 310 312 318 317 311 309 310 308 304 306 304 296 299 286 290 300 299 299
235 235 219 257 266 216 205 210 200 187 187 188 186 190 184 188 189 179 179 181 197 231 267 286 300 308 315 320 321 318 319 318 315 314 312 312 312 311 307 306 306 305 302 300
239 254 233 260 270 224 214 214 200 192 187 186 183 179 174 177 173 167 174 186 208 238 267 288 308 315 319 323 322 317 314 315 314 316 316 316 314 314 313 313 311 308 307 306
242 244 259 245 241 228 205 194 174 169 173 170 167 159 155 156 156 169 190 205 210 231 274 295 311 311 314 321 323 320 315 315 317 309 309 308 308 308 307 309 312 311 310 309
244 224 235 256 251 211 175 156 157 171 166 160 154 155 158 163 176 186 186 173 167 270 296 309 312 310 318 323 324 321 318 313 311 307 306 305 305 305 305 305 305 305 307 310
267 257 240 234 226 211 188 185 188 193 183 176 172 172 170 166 163 159 156 152 181 276 293 300 302 308 317 319 321 317 312 315 319 313 310 308 307 307 307 307 307 306 307 309
232 240 225 227 223 218 209 205 198 192 183 182 183 168 153 148 152 175 200 215 230 261 280 292 302 313 317 317 312 308 306 311 318 315 309 308 308 307 307 308 307 307 306 307
225 229 223 219 216 215 213 201 191 183 186 183 162 153 160 171 192 212 223 237 290 293 286 295 303 313 316 315 310 303 304 307 311 310 310 308 307 307 308 308 308 307 307 309
238 232 227 217 207 198 197 195 187 177 167 158 159 170 178 187 195 202 199 216 258 276 279 287 311 320 310 308 315 300 304 308 311 311 310 310 313 310 309 309 308 308 309 311
241 224 208 196 184 179 182 178 166 163 163 158 157 163 177 193 190 193 209 236 240 241 260 284 302 302 301 300 310 299 304 307 310 310 310 309 309 309 310 310 310 310 310 311
231 206 182 172 168 168 170 165 162 167 166 163 168 181 190 193 189 192 213 254 254 243 266 296 308 297 295 302 312 306 304 305 307 307 308 308 309 309 309 310 311 312 312 312
211 191 181 168 160 165 166 162 164 165 163 168 173 174 177 192 204 219 230 235 251 280 290 273 281 296 307 316 319 308 304 303 303 305 305 306 307 308 309 310 311 311 311 310
215 198 187 181 175 167 156 164 171 171 175 180 182 185 192 201 201 213 251 241 242 279 294 271 295 308 316 330 315 303 301 301 301 302 303 304 304 305 306 307 307 307 307 307
210 199 191 172 152 161 185 194 181 179 180 183 188 186 185 198 222 222 228 258 276 290 284 294 308 313 323 329 303 298 297 298 298 297 298 301 303 304 304 304 304 305 304 305
206 198 187 177 186 202 200 181 170 179 183 189 193 192 192 194 207 219 219 238 270 291 288 300 308 316 322 300 296 296 297 295 297 302 303 306 304 304 303 302 303 304 304 304
209 208 207 207 204 197 181 175 185 191 188 197 205 200 193 194 198 202 216 234 253 282 288 284 292 302 296 293 294 295 296 300 305 306 301 300 301 301 302 303 303 303 302 301
206 206 202 209 212 196 186 186 194 199 197 197 206 199 191 191 195 205 218 233 250 263 270 275 279 284 289 292 294 295 296 296 297 298 299 298 298 299 300 300 301 301 302 302
Height
1485 1482 1480 1479 1477 1476 1478 1478 1479 1476 1474 1472 1472 1473 1474 1474 1475 1475 1474 1473 1472 1471 1469 1468 1466 1464 1463 1461 1459 1457 1455 1453 1452 1450 1449 1447 1446 1444 1442 1440 1438 1437 1435 1434
1484 1479 1479 1477 1475 1475 1475 1475 1475 1474 1474 1469 1470 1472 1473 1473 1474 1474 1474 1473 1472 1471 1470 1469 1467 1466 1464 1462 1460 1459 1456 1454 1453 1451 1449 1447 1445 1443 1441 1439 1437 1435 1433 1431
1487 1483 1477 1477 1472 1472 1471 1471 1471 1471 1470 1469 1470 1471 1471 1472 1473 1473 1473 1473 1472 1471 1470 1469 1468 1466 1465 1463 1461 1459 1457 1454 1452 1450 1448 1445 1443 1441 1439 1437 1435 1433 1430 1428
1492 1485 1481 1473 1468 1468 1468 1467 1467 1466 1466 1467 1467 1468 1469 1470 1471 1471 1472 1472 1472 1471 1470 1469 1468 1466 1465 1463 1461 1458 1456 1453 1451 1448 1446 1443 1441 1439 1436 1434 1432 1429 1427 1425
1494 1491 1482 1470 1467 1467 1468 1466 1462 1463 1464 1466 1467 1468 1468 1468 1469 1470 1470 1471 1471 1470 1470 1468 1467 1465 1464 1461 1459 1456 1454 1451 1449 1447 1444 1441 1438 1436 1433 1430 1428 1425 1423 1420
1492 1485 1477 1466 1465 1465 1468 1466 1460 1460 1462 1464 1466 1470 1467 1465 1467 1468 1469 1469 1469 1469 1468 1467 1465 1464 1462 1459 1457 1455 1452 1450 1447 1445 1442 1439 1436 1433 1429 1426 1423 1421 1418 1416
1491 1488 1478 1466 1464 1466 1471 1463 1457 1457 1458 1461 1462 1463 1464 1464 1465 1466 1467 1467 1467 1467 1466 1465 1463 1461 1459 1457 1455 1453 1450 1447 1445 1442 1438 1435 1432 1429 1426 1422 1419 1416 1413 1410
1491 1488 1477 1463 1463 1465 1461 1456 1455 1456 1457 1458 1459 1460 1461 1462 1464 1464 1465 1465 1465 1465 1464 1463 1461 1459 1457 1455 1453 1450 1447 1444 1441 1438 1435 1431 1428 1424 1421 1418 1414 1410 1407 1403
1479 1471 1460 1458 1457 1455 1455 1454 1454 1454 1455 1457 1458 1459 1460 1461 1462 1462 1463 1463 1463 1462 1461 1460 1458 1456 1454 1452 1449 1446 1443 1440 1437 1434 1430 1427 1423 1419 1416 1412 1409 1404 1401 1397
1472 1460 1455 1454 1453 1452 1452 1452 1452 1453 1454 1454 1455 1456 1458 1459 1460 1460 1460 1460 1460 1459 1458 1457 1455 1453 1451 1448 1445 1442 1439 1436 1432 1429 1425 1422 1418 1415 1411 1407 1403 1400 1396 1392
1466 1456 1451 1448 1447 1448 1448 1449 1450 1450 1451 1452 1453 1454 1455 1456 1457 1457 1458 1457 1457 1456 1455 1453 1452 1450 1447 1444 1441 1438 1434 1431 1427 1424 1420 1416 1413 1410 1406 1402 1400 1396 1392 1389
1456 1449 1449 1445 1445 1445 1445 1445 1446 1447 1448 1449 1450 1451 1452 1453 1454 1454 1454 1454 1453 1452 1451 1450 1448 1446 1443 1440 1437 1433 1430 1426 1423 1419 1415 1411 1406 1403 1400 1398 1394 1391 1387 1384
1445 1444 1444 1442 1442 1442 1442 1442 1443 1444 1445 1446 1447 1448 1449 1450 1450 1451 1451 1450 1450 1449 1447 1446 1444 1442 1439 1436 1433 1429 1426 1422 1418 1414 1410 1406 1402 1397 1393 1390 1388 1385 1381 1378
1442 1441 1439 1438 1438 1438 1438 1439 1440 1441 1442 1443 1444 1445 1445 1446 1447 1447 1447 1447 1446 1445 1443 1442 1440 1438 1435 1432 1429 1426 1422 1418 1414 1410 1406 1402 1398 1394 1390 1385 1380 1376 1374 1371
1436 1436 1435 1434 1434 1434 1434 1435 1436 1437 1438 1439 1440 1441 1442 1443 1443 1444 1444 1443 1442 1441 1440 1438 1436 1434 1431 1428 1425 1421 1418 1414 1410 1406 1402 1398 1394 1390 1386 1381 1377 1372 1368 1365
1431 1430 1430 1429 1429 1430 1430 1431 1432 1433 1435 1436 1437 1438 1439 1440 1440 1440 1440 1439 1439 1437 1436 1434 1432 1429 1427 1424 1421 1417 1414 1410 1406 1402 1398 1394 1390 1386 1381 1377 1373 1369 1365 1361
1425 1423 1424 1424 1425 1425 1427 1428 1429 1431 1432 1433 1434 1435 1436 1437 1437 1437 1436 1436 1435 1433 1432 1430 1428 1426 1423 1420 1417 1413 1410 1406 1403 1398 1394 1390 1386 1382 1378 1373 1369 1365 1361 1358
1419 1419 1420 1420 1421 1422 1423 1425 1426 1428 1429 1430 1431 1432 1433 1433 1433 1433 1433 1432 1431 1430 1428 1426 1424 1422 1419 1416 1413 1409 1406 1402 1398 1394 1390 1386 1382 1378 1374 1370 1365 1361 1357 1353
1414 1414 1415 1416 1417 1419 1420 1421 1423 1425 1426 1427 1428 1429 1429 1430 1430 1430 1429 1428 1427 1426 1424 1423 1420 1418 1415 1412 1409 1406 1402 1398 1395 1391 1387 1382 1378 1374 1370 1366 1362 1358 1354 1350
1410 1411 1411 1412 1414 1415 1417 1418 1420 1421 1422 1424 1424 1425 1426 1426 1426 1426 1425 1424 1423 1422 1420 1418 1416 1414 1411 1408 1405 1402 1398 1395 1391 1387 1383 1379 1374 1370 1366 1362 1358 1354 1350 1347
1408 1408 1409 1410 1411 1413 1415 1416 1417 1418 1419 1420 1421 1422 1422 1423 1423 1422 1421 1420 1420 1418 1416 1414 1412 1410 1407 1404 1401 1398 1395 1391 1387 1383 1379 1375 1371 1367 1363 1359 1355 1351 1347 1343
1406 1406 1407 1408 1409 1411 1412 1414 1415 1416 1416 1417 1418 1419 1419 1419 1419 1418 1418 1417 1416 1414 1412 1410 1408 1406 1403 1400 1397 1394 1391 1387 1384 1380 1376 1372 1367 1363 1359 1355 1351 1347 1344 1340
1404 1404 1405 1406 1407 1408 1409 1411 1411 1412 1413 1414 1415 1415 1415 1415 1415 1415 1414 1413 1411 1410 1408 1406 1404 1402 1399 1396 1393 1390 1387 1384 1380 1376 1372 1368 1364 1360 1356 1352 1348 1344 1340 1336
1402 1403 1403 1404 1405 1405 1406 1407 1408 1409 1410 1410 1411 1412 1412 1412 1411 1411 1410 1408 1407 1406 1404 1402 1400 1398 1395 1393 1390 1387 1383 1380 1376 1372 1369 1365 1361 1357 1353 1349 1345 1341 1337 1334
1400 1400 1400 1401 1401 1402 1403 1404 1404 1405 1406 1407 1407 1408 1408 1408 1407 1407 1406 1404 1403 1402 1400 1398 1396 1394 1391 1389 1386 1383 1380 1376 1373 1369 1365 1361 1358 1354 1350 1346 1342 1339 1335 1331
1396 1396 1396 1397 1398 1398 1399 1400 1400 1401 1402 1403 1403 1403 1403 1403 1403 1402 1401 1400 1399 1398 1396 1394 1392 1390 1387 1385 1382 1379 1376 1373 1369 1366 1362 1358 1355 1351 1347 1344 1340 1336 1333 1329
1391 1391 1391 1392 1392 1393 1394 1395 1395 1396 1397 1398 1399 1399 1399 1399 1398 1398 1397 1396 1395 1394 1392 1390 1388 1386 1384 1381 1379 1376 1373 1369 1366 1363 1359 1355 1352 1348 1345 1341 1338 1334 1331 1327